1509202800.77,12555,9.44,72502.0,-7.25,-8.07,-8.03,0,*52
1509202802.05,12556,9.44,72496.8,-7.27,-8.07,-8.03,0,*53
1509202803.32,12557,9.38,72498.3,-7.27,-8.07,-8.03,0,*52
1509202804.56,12558,9.38,72498.8,-7.25,-8.07,-8.03,0,*5F
1509202805.82,12559,9.38,72496.5,-7.25,-8.03,-8.07,0,*5E
1509202807.1,12560,9.38,72502.0,-7.27,-8.07,-8.07,0,*52
1509202808.34,12561,9.38,72484.5,-7.25,-8.03,-8.03,0,*51
1509202809.61,12562,9.38,72460.0,-7.27,-8.07,-8.03,0,*54
1509202810.87,12563,9.38,72454.0,-7.27,-8.03,-8.03,0,*51
1509202812.14,12564,9.38,72460.0,-7.27,-8.03,-7.95,0,*56
1509202813.41,12565,9.38,72482.3,-7.27,-8.03,-7.91,0,*53
1509202814.67,12566,9.38,72490.3,-7.27,-7.95,-7.95,0,*54
1509202815.94,12567,9.38,72490.8,-7.27,-7.95,-7.95,0,*55
1509202817.21,12568,9.38,72494.5,-7.27,-7.95,-7.95,0,*5A
1509202818.48,12569,9.38,72486.8,-7.27,-7.95,-7.95,0,*5B
1509202819.75,12570,9.38,72470.3,-7.27,-7.95,-8.03,0,*53
1509202821.01,12571,9.38,72472.0,-7.27,-8.03,-8.03,0,*52
1509202822.27,12572,9.38,72464.5,-7.27,-8.03,-7.95,0,*51
1509202823.54,12573,9.38,72468.5,-7.27,-8.03,-8.03,0,*50
1509202824.8,12574,9.38,72472.5,-7.27,-8.03,-8.03,0,*57
1509202826.07,12575,9.38,72472.0,-7.27,-8.03,-8.03,0,*56
1509202827.33,12576,9.38,72466.3,-7.27,-8.03,-8.03,0,*55
1509202828.6,12577,9.38,72466.3,-7.27,-8.03,-8.03,0,*54
1509202829.87,12578,9.44,72466.8,-7.27,-8.07,-7.95,0,*5F
1509202831.13,12579,9.44,72464.5,-7.27,-8.03,-7.95,0,*5A
1509202832.4,12580,9.38,72462.5,-7.27,-8.03,-7.95,0,*5C
1509202833.64,12581,9.38,72464.0,-7.25,-8.03,-8.03,0,*5F
1509202834.91,12582,9.38,72460.5,-7.27,-7.95,-7.95,0,*5E
1509202836.17,12583,9.38,72466.8,-7.27,-8.03,-8.03,0,*5F
1509202837.44,12584,9.38,72464.5,-7.27,-8.03,-8.03,0,*58
1509202838.68,12585,9.44,72478.8,-7.25,-8.03,-8.03,0,*5B
1509202839.94,12586,9.38,72480.8,-7.27,-8.03,-8.03,0,*5A
1509202841.2,12587,9.38,72484.0,-7.27,-8.03,-8.03,0,*5B
1509202842.48,12588,9.38,72486.5,-7.27,-8.03,-8.07,0,*50
1509202843.74,12589,9.38,72484.5,-7.27,-8.03,-7.95,0,*55
1509202844.99,12590,9.38,72480.8,-7.25,-7.95,-8.03,0,*5F
1509202846.25,12591,9.38,72474.0,-7.27,-8.03,-8.03,0,*5C
1509202847.49,12592,9.38,72476.5,-7.25,-8.03,-7.95,0,*5D
1509202848.76,12593,9.38,72484.0,-7.27,-8.03,-8.03,0,*5E
1509202850.02,12594,9.38,72494.3,-7.27,-8.03,-8.03,0,*59
1509202851.28,12595,9.38,72488.8,-7.27,-8.03,-8.03,0,*58
1509202852.53,12596,9.38,72486.3,-7.29,-7.95,-8.07,0,*51
1509202853.8,12597,9.38,72490.0,-7.27,-8.03,-8.03,0,*5A
1509202855.06,12598,9.38,72482.0,-7.27,-8.03,-8.03,0,*55
1509202856.3,12599,9.38,72478.8,-7.29,-7.99,-7.95,0,*56
1509202857.55,12600,9.38,72484.0,-7.29,-7.99,-8.07,0,*51
1509202858.79,12601,9.38,72482.3,-7.29,-8.07,-7.99,0,*50
1509202860.04,12602,9.38,72488.3,-7.29,-7.99,-8.07,0,*53
1509202861.29,12603,9.38,72476.8,-7.29,-8.07,-8.07,0,*5A
1509202862.55,12604,9.38,72486.0,-7.27,-8.03,-8.03,0,*53
1509202863.8,12605,9.38,72492.0,-7.29,-8.11,-8.07,0,*5B
1509202865.05,12606,9.38,72482.5,-7.29,-7.99,-8.11,0,*50
1509202866.29,12607,9.38,72468.0,-7.29,-8.07,-7.99,0,*56
1509202867.53,12608,9.38,72490.3,-7.29,-7.99,-7.99,0,*51
1509202868.78,12609,9.38,72482.3,-7.29,-8.11,-7.99,0,*5F
1509202870.02,12610,9.38,72486.8,-7.29,-7.95,-7.99,0,*54
1509202871.26,12611,9.38,72492.8,-7.29,-7.99,-7.99,0,*59
1509202872.5,12612,9.38,72490.5,-7.29,-7.99,-7.99,0,*5A
1509202873.74,12613,9.38,72488.3,-7.29,-7.99,-7.95,0,*57
1509202874.98,12614,9.38,72492.5,-7.29,-7.95,-7.99,0,*50
1509202876.22,12615,9.38,72496.0,-7.29,-7.99,-7.95,0,*51
1509202877.46,12616,9.38,72496.0,-7.29,-7.99,-7.99,0,*5E
1509202878.7,12617,9.38,72498.5,-7.29,-7.99,-7.99,0,*5F
1509202879.94,12618,9.38,72502.3,-7.29,-7.95,-8.07,0,*54
1509202881.19,12619,9.38,72498.5,-7.29,-8.11,-8.07,0,*56
1509202882.45,12620,9.38,72498.8,-7.29,-8.07,-8.07,0,*5B
1509202883.72,12621,9.38,72506.5,-7.31,-8.11,-8.11,0,*53
1509202884.97,12622,9.38,72508.8,-7.29,-8.07,-8.07,0,*59
1509202886.22,12623,9.38,72506.3,-7.29,-8.07,-7.95,0,*5C
1509202887.46,12624,9.38,72508.8,-7.29,-7.99,-7.99,0,*5F
1509202888.7,12625,9.38,72502.5,-7.29,-7.99,-7.99,0,*5E
1509202889.93,12626,9.38,72496.3,-7.29,-7.99,-7.95,0,*51
1509202891.18,12627,9.38,72500.5,-7.29,-7.99,-7.99,0,*5C
1509202892.42,12628,9.38,72500.5,-7.29,-7.99,-7.99,0,*53
1509202893.66,12629,9.38,72502.8,-7.29,-7.99,-7.99,0,*52
1509202894.9,12630,9.38,72500.8,-7.29,-7.99,-7.99,0,*5A
1509202896.14,12631,9.38,72500.8,-7.29,-7.99,-7.99,0,*5B
1509202897.38,12632,9.38,72506.8,-7.29,-7.99,-7.95,0,*54
1509202898.62,12633,9.38,72504.3,-7.29,-7.99,-7.99,0,*59
1509202899.88,12634,9.38,72510.0,-7.31,-8.03,-7.99,0,*5B
1509202901.13,12635,9.38,72510.8,-7.29,-7.99,-7.99,0,*5F
1509202902.34,12636,9.38,72510.0,-7.29,-7.95,-7.87,0,*5F
1509202903.56,12637,9.38,72512.0,-7.29,-7.95,-7.87,0,*5E
1509202904.8,12638,9.38,72504.0,-7.29,-7.95,-7.95,0,*52
1509202906.07,12639,9.38,72506.0,-7.31,-8.03,-7.99,0,*56
1509202907.31,12640,9.38,72510.5,-7.29,-7.95,-7.95,0,*5D
1509202908.55,12641,9.38,72514.3,-7.29,-7.99,-7.99,0,*5C
1509202909.81,12642,9.38,72512.5,-7.31,-7.99,-8.03,0,*5A
1509202911.05,12643,9.38,72508.3,-7.29,-7.99,-7.95,0,*52
1509202912.29,12644,9.38,72506.5,-7.29,-8.03,-7.95,0,*59
1509202913.55,12645,9.38,72496.0,-7.31,-8.03,-8.03,0,*51
1509202914.81,12646,9.38,72494.8,-7.31,-8.03,-8.03,0,*52
1509202916.06,12647,9.38,72500.3,-7.29,-7.99,-7.99,0,*5A
1509202917.29,12648,9.38,72496.8,-7.29,-7.99,-7.95,0,*59
1509202918.53,12649,9.38,72494.3,-7.29,-7.95,-7.99,0,*58
1509202919.78,12650,9.38,72490.8,-7.29,-8.07,-7.99,0,*54
1509202921.04,12651,9.38,72494.8,-7.27,-8.03,-7.95,0,*53
1509202922.29,12652,9.38,72496.8,-7.31,-8.17,-8.03,0,*52
1509202923.53,12653,9.38,72496.0,-7.29,-7.99,-7.99,0,*5F
1509202924.79,12654,9.38,72502.0,-7.31,-8.03,-8.03,0,*51
1509202926.04,12655,9.38,72496.3,-7.29,-8.07,-7.99,0,*51
1509202927.31,12656,9.38,72492.3,-7.31,-8.11,-8.03,0,*50
1509202928.55,12657,9.38,72496.3,-7.29,-7.99,-8.07,0,*53
1509202929.79,12658,9.38,72506.5,-7.29,-7.99,-7.95,0,*58
1509202931.04,12659,9.38,72500.5,-7.29,-8.07,-8.07,0,*55
1509202932.28,12660,9.38,72500.5,-7.29,-7.99,-7.99,0,*5F
1509202933.54,12661,9.38,72500.0,-7.29,-8.07,-8.07,0,*5E
1509202934.81,12662,9.38,72508.8,-7.31,-8.11,-8.03,0,*57
1509202936.08,12663,9.38,72514.3,-7.31,-8.11,-8.03,0,*56
1509202937.32,12664,9.38,72508.0,-7.29,-8.07,-7.99,0,*53
1509202938.59,12665,9.38,72496.5,-7.31,-8.11,-8.03,0,*50
1509202939.83,12666,9.38,72484.5,-7.29,-7.95,-7.99,0,*55
1509202941.1,12667,9.38,72476.3,-7.31,-8.03,-8.03,0,*51
1509202942.37,12668,9.38,72470.5,-7.31,-7.99,-8.03,0,*52
1509202943.61,12669,9.38,72464.3,-7.29,-7.95,-7.99,0,*5A
1509202944.85,12670,9.38,72476.0,-7.29,-7.95,-7.99,0,*52
1509202946.08,12671,9.38,72476.8,-7.29,-7.95,-7.95,0,*5F
1509202947.35,12672,9.38,72478.0,-7.31,-8.03,-7.99,0,*59
1509202948.62,12673,9.38,72488.5,-7.31,-8.03,-7.99,0,*58
1509202949.84,12674,9.38,72490.8,-7.29,-7.95,-7.87,0,*59
1509202951.06,12675,9.38,72490.0,-7.29,-7.95,-7.83,0,*5C
1509202952.25,12676,9.38,72482.3,-7.29,-7.87,-7.87,0,*58
1509202953.45,12677,9.38,72488.3,-7.29,-7.87,-7.87,0,*59
1509202954.64,12678,9.38,72498.0,-7.29,-7.87,-7.87,0,*56
1509202955.91,12679,9.38,72492.0,-7.31,-7.99,-7.91,0,*56
1509202957.13,12680,9.38,72496.3,-7.29,-7.95,-7.87,0,*52
1509202958.4,12681,9.38,72498.0,-7.31,-7.91,-7.91,0,*59
1509202959.6,12682,9.38,72504.5,-7.29,-7.83,-7.87,0,*57
1509202960.79,12683,9.38,72516.0,-7.29,-7.87,-7.87,0,*52
1509202961.99,12684,9.38,72508.0,-7.29,-7.83,-7.87,0,*51
1509202963.18,12685,9.38,72508.0,-7.29,-7.87,-7.87,0,*54
1509202964.39,12686,9.38,72512.8,-7.29,-7.87,-7.95,0,*54
1509202965.66,12687,9.38,72512.8,-7.31,-7.91,-7.91,0,*5F
1509202966.86,12688,9.38,72512.5,-7.29,-7.87,-7.87,0,*59
1509202968.1,12689,9.38,72516.8,-7.31,-7.87,-7.91,0,*56
1509202969.32,12690,9.38,72518.0,-7.29,-7.95,-7.83,0,*57
1509202970.52,12691,9.38,72518.8,-7.29,-7.83,-7.87,0,*55
1509202971.71,12692,9.38,72514.8,-7.29,-7.87,-7.83,0,*56
1509202972.91,12693,9.38,72514.8,-7.29,-7.83,-7.83,0,*53
1509202974.11,12694,9.38,72514.3,-7.29,-7.87,-7.87,0,*54
1509202975.33,12695,9.44,72518.0,-7.27,-7.83,-7.83,0,*5B
1509202976.58,12696,9.38,72514.5,-7.27,-7.83,-7.77,0,*53
1509202977.81,12697,9.38,72508.5,-7.31,-7.87,-7.87,0,*5E
1509202979.0,12698,9.38,72512.5,-7.29,-7.87,-7.87,0,*58
1509202980.2,12699,9.38,72514.0,-7.29,-7.87,-7.87,0,*59
1509202981.39,12700,9.38,72516.8,-7.29,-7.87,-7.87,0,*58
1509202982.59,12701,9.38,72522.0,-7.29,-7.87,-7.87,0,*59
1509202983.78,12702,9.38,72518.3,-7.29,-7.87,-7.83,0,*5E
1509202984.98,12703,9.38,72512.0,-7.29,-7.87,-7.83,0,*5F
1509202986.17,12704,9.38,72516.0,-7.29,-7.87,-7.87,0,*5C
1509202987.39,12705,9.38,72510.5,-7.29,-7.95,-7.87,0,*5E
1509202988.62,12706,9.38,72516.5,-7.27,-7.83,-7.83,0,*50
1509202989.81,12707,9.38,72518.5,-7.29,-7.87,-7.87,0,*5F
1509202991.01,12708,9.38,72518.3,-7.29,-7.87,-7.87,0,*50
1509202992.23,12709,9.38,72512.0,-7.29,-7.95,-7.83,0,*56
1509202993.5,12710,9.38,72510.0,-7.27,-7.91,-7.91,0,*57
1509202994.75,12711,9.38,72502.5,-7.27,-7.95,-7.83,0,*51
1509202995.94,12712,9.38,72504.3,-7.29,-7.87,-7.87,0,*5B
1509202997.16,12713,9.38,72500.8,-7.29,-7.99,-7.87,0,*55
1509202998.38,12714,9.38,72502.8,-7.29,-7.95,-7.87,0,*5E
1509202999.62,12715,9.38,72498.5,-7.29,-7.95,-7.95,0,*5C
1509203000.86,12716,9.38,72498.8,-7.29,-7.95,-7.95,0,*5F
1509203002.09,12717,9.38,72492.3,-7.29,-7.95,-7.95,0,*5E
1509203003.36,12718,9.38,72494.5,-7.27,-7.91,-7.91,0,*5F
1509203004.64,12719,9.38,72494.8,-7.27,-7.95,-7.77,0,*52
1509203005.88,12720,9.38,72492.3,-7.27,-7.91,-7.83,0,*57
1509203007.15,12721,9.38,72484.3,-7.27,-7.91,-7.91,0,*55
1509203008.42,12722,9.38,72480.0,-7.27,-7.91,-7.91,0,*56
1509203009.69,12723,9.38,72484.8,-7.27,-7.91,-7.91,0,*57
1509203010.93,12724,9.38,72482.0,-7.29,-7.99,-7.95,0,*52
1509203012.17,12725,9.38,72480.5,-7.29,-7.99,-7.95,0,*53
1509203013.39,12726,9.38,72486.0,-7.29,-7.99,-7.87,0,*53
1509203014.65,12727,9.38,72486.0,-7.31,-8.03,-7.99,0,*58
1509203015.89,12728,9.38,72486.8,-7.29,-7.95,-7.95,0,*52
1509203017.16,12729,9.44,72490.5,-7.27,-7.91,-7.91,0,*5D
1509203018.41,12730,9.38,72488.0,-7.27,-7.91,-7.83,0,*56
1509203019.68,12731,9.38,72490.8,-7.27,-7.95,-7.91,0,*50
1509203020.92,12732,9.38,72492.0,-7.29,-7.95,-7.99,0,*55
1509203022.16,12733,9.38,72494.5,-7.29,-7.99,-7.95,0,*54
1509203023.4,12734,9.38,72494.5,-7.29,-7.99,-7.99,0,*5F
1509203024.64,12735,9.38,72496.5,-7.29,-7.95,-7.95,0,*5E
1509203025.87,12736,9.38,72498.3,-7.29,-7.95,-7.95,0,*5D
1509203027.11,12737,9.38,72498.0,-7.29,-7.95,-7.95,0,*5C
1509203028.33,12738,9.38,72496.0,-7.29,-7.87,-7.95,0,*50
1509203029.56,12739,9.38,72494.3,-7.29,-7.95,-7.95,0,*52
1509203030.78,12740,9.38,72496.5,-7.29,-7.95,-7.87,0,*5F
1509203032.0,12741,9.38,72498.3,-7.29,-7.95,-7.87,0,*5E
1509203033.2,12742,9.38,72500.8,-7.29,-7.87,-7.87,0,*5E
1509203034.44,12743,9.38,72500.3,-7.27,-7.83,-7.91,0,*52
1509203035.69,12744,9.38,72506.3,-7.27,-7.77,-7.83,0,*5D
1509203036.94,12745,9.38,72514.3,-7.27,-7.83,-7.77,0,*5C
1509203038.17,12746,9.38,72510.0,-7.27,-7.83,-7.83,0,*54
1509203039.44,12747,9.38,72518.0,-7.31,-7.99,-7.91,0,*5A
1509203040.64,12748,9.38,72516.3,-7.29,-7.87,-7.87,0,*54
1509203041.87,12749,9.38,72526.3,-7.29,-7.95,-7.95,0,*55
1509203043.09,12750,9.38,72524.5,-7.29,-7.95,-7.87,0,*5E
1509203044.31,12751,9.38,72524.3,-7.29,-7.95,-7.83,0,*5B
1509203045.55,12752,9.38,72522.5,-7.29,-7.95,-7.95,0,*5F
1509203046.79,12753,9.38,72520.0,-7.29,-7.95,-7.95,0,*5E
1509203048.03,12754,9.38,72528.8,-7.29,-7.95,-7.99,0,*55
1509203049.26,12755,9.38,72524.3,-7.27,-7.83,-7.83,0,*56
1509203050.48,12756,9.38,72524.3,-7.27,-7.83,-7.83,0,*55
1509203051.75,12757,9.38,72522.3,-7.27,-7.95,-7.91,0,*50
1509203053.02,12758,9.38,72522.3,-7.27,-7.91,-7.91,0,*5B
1509203054.29,12759,9.38,72520.3,-7.31,-7.91,-7.99,0,*55
1509203055.5,12760,9.38,72520.0,-7.29,-7.87,-7.95,0,*5D
1509203056.72,12761,9.38,72518.0,-7.29,-7.87,-7.95,0,*5C
1509203057.94,12762,9.38,72518.0,-7.29,-7.99,-7.87,0,*53
1509203059.17,12763,9.38,72524.3,-7.29,-7.95,-7.95,0,*5D
1509203060.39,12764,9.38,72520.0,-7.29,-7.95,-7.87,0,*59
1509203061.66,12765,9.38,72514.3,-7.31,-7.99,-7.91,0,*5A
1509203062.9,12766,9.38,72514.8,-7.29,-7.95,-7.99,0,*54
1509203064.14,12767,9.38,72510.3,-7.29,-7.99,-7.95,0,*55
1509203065.38,12768,9.38,72504.5,-7.29,-7.95,-7.99,0,*5A
1509203066.62,12769,9.38,72500.0,-7.29,-7.95,-7.95,0,*57
1509203067.86,12770,9.38,72502.0,-7.29,-7.95,-7.95,0,*5F
1509203069.1,12771,9.38,72504.8,-7.29,-7.95,-7.99,0,*52
1509203070.34,12772,9.38,72502.8,-7.29,-7.99,-7.95,0,*51
1509203071.6,12773,9.38,72500.5,-7.31,-8.03,-8.03,0,*55
1509203072.87,12774,9.38,72508.5,-7.27,-7.91,-7.95,0,*51
1509203074.14,12775,9.38,72514.3,-7.27,-7.95,-7.95,0,*54
1509203075.4,12776,9.38,72516.0,-7.27,-7.91,-7.91,0,*57
1509203076.67,12777,9.38,72518.8,-7.27,-7.91,-7.91,0,*56
1509203077.92,12778,9.38,72508.5,-7.27,-7.83,-7.91,0,*5A
1509203079.19,12779,9.38,72504.3,-7.27,-7.91,-7.95,0,*5C
1509203080.41,12780,9.38,72498.3,-7.29,-7.95,-7.87,0,*53
1509203081.62,12781,9.38,72498.3,-7.29,-7.95,-7.87,0,*52
1509203082.82,12782,9.38,72492.3,-7.29,-7.87,-7.87,0,*52
1509203084.02,12783,9.38,72480.3,-7.29,-7.83,-7.87,0,*57
1509203085.23,12784,9.38,72486.8,-7.29,-7.95,-7.87,0,*57
1509203086.48,12785,9.38,72488.3,-7.27,-7.91,-7.83,0,*58
1509203087.73,12786,9.38,72488.5,-7.27,-7.91,-7.83,0,*5B
1509203088.98,12787,9.38,72488.0,-7.27,-7.91,-7.83,0,*5A
1509203090.23,12788,9.38,72480.8,-7.27,-7.91,-7.83,0,*55
1509203091.47,12789,9.38,72478.8,-7.27,-7.77,-7.83,0,*5C
1509203092.71,12790,9.38,72484.0,-7.29,-7.95,-7.95,0,*51
1509203093.95,12791,9.38,72482.0,-7.29,-7.95,-7.95,0,*50
1509203095.19,12792,9.38,72480.8,-7.29,-7.99,-7.95,0,*5F
1509203096.43,12793,9.38,72470.8,-7.29,-7.95,-7.95,0,*52
1509203097.67,12794,9.38,72484.5,-7.25,-7.95,-7.95,0,*59
1509203098.94,12795,9.38,72468.8,-7.27,-7.95,-7.95,0,*5A
1509203100.2,12796,9.38,72466.3,-7.27,-7.91,-7.95,0,*5D
1509203101.45,12797,9.38,72474.8,-7.29,-7.95,-7.99,0,*5A
1509203102.68,12798,9.38,72468.8,-7.29,-7.99,-7.95,0,*55
1509203103.92,12799,9.38,72466.0,-7.29,-7.99,-7.99,0,*58
1509203105.16,12800,9.38,72466.3,-7.29,-7.95,-7.95,0,*57
1509203106.4,12801,9.38,72476.8,-7.29,-7.99,-7.95,0,*5A
1509203107.62,12802,9.38,72454.5,-7.29,-7.95,-7.87,0,*56
1509203108.86,12803,9.38,72458.3,-7.29,-7.95,-7.99,0,*58
1509203110.1,12804,9.38,72452.8,-7.29,-7.95,-7.99,0,*5F
1509203111.36,12805,9.38,72462.5,-7.31,-8.03,-8.03,0,*5B
1509203112.6,12806,9.38,72474.0,-7.29,-7.99,-7.99,0,*51
1509203113.84,12807,9.38,72458.3,-7.29,-7.95,-7.95,0,*50
1509203115.08,12808,9.38,72470.0,-7.29,-7.99,-7.99,0,*5F
1509203116.32,12809,9.38,72484.3,-7.29,-7.95,-7.95,0,*5E
1509203117.59,12810,9.38,72466.8,-7.27,-7.95,-7.91,0,*5C
1509203118.86,12811,9.38,72478.8,-7.27,-7.91,-7.91,0,*59
1509203120.13,12812,9.38,72478.8,-7.27,-7.91,-7.91,0,*5A
1509203121.37,12813,9.38,72478.8,-7.29,-7.99,-7.99,0,*55
1509203122.63,12814,9.38,72480.0,-7.31,-8.03,-8.03,0,*5B
1509203123.87,12815,9.38,72484.0,-7.29,-7.99,-7.95,0,*5F
1509203125.11,12816,9.38,72496.5,-7.29,-7.99,-7.99,0,*50
1509203126.35,12817,9.38,72490.5,-7.29,-7.99,-7.95,0,*5D
1509203127.59,12818,9.38,72490.8,-7.29,-7.95,-7.95,0,*5E
1509203128.83,12819,9.38,72494.3,-7.29,-7.99,-7.95,0,*53
1509203130.07,12820,9.38,72494.8,-7.29,-7.95,-7.95,0,*55
1509203131.33,12821,9.38,72476.5,-7.31,-7.99,-8.03,0,*51
1509203132.57,12822,9.38,72474.0,-7.29,-7.95,-7.95,0,*57
1509203133.78,12823,9.38,72474.8,-7.29,-7.87,-7.95,0,*55
1509203135.02,12824,9.38,72466.3,-7.29,-7.95,-7.99,0,*5D
1509203136.29,12825,9.38,72456.0,-7.31,-7.99,-7.99,0,*59
1509203137.53,12826,9.38,72458.8,-7.29,-7.99,-7.95,0,*5F
1509203138.77,12827,9.38,72466.0,-7.29,-7.95,-7.95,0,*52
1509203140.01,12828,9.38,72474.8,-7.29,-7.95,-7.99,0,*51
1509203141.28,12829,9.38,72476.0,-7.31,-7.99,-7.91,0,*5D
1509203142.52,12830,9.38,72482.8,-7.29,-7.99,-7.95,0,*58
1509203143.76,12831,9.38,72466.0,-7.29,-7.95,-7.99,0,*59
1509203145.0,12832,9.38,72462.8,-7.29,-7.95,-7.99,0,*5A
1509203146.24,12833,9.38,72464.5,-7.29,-7.99,-7.95,0,*5B
1509203147.51,12834,9.38,72474.8,-7.31,-7.99,-7.99,0,*59
1509203148.75,12835,9.38,72476.3,-7.29,-7.99,-7.95,0,*5D
1509203149.99,12836,9.38,72478.3,-7.29,-7.99,-7.99,0,*52
1509203151.23,12837,9.38,72478.8,-7.29,-7.95,-7.95,0,*53
1509203152.47,12838,9.38,72488.3,-7.29,-7.95,-7.95,0,*5C
1509203153.7,12839,9.38,72482.5,-7.29,-7.95,-7.95,0,*5D
1509203154.94,12840,9.38,72488.0,-7.29,-7.95,-7.95,0,*53
1509203156.21,12841,9.38,72486.0,-7.31,-7.99,-7.99,0,*5B
1509203157.45,12842,9.38,72476.5,-7.29,-7.99,-7.95,0,*5D
1509203158.67,12843,9.38,72488.5,-7.29,-7.95,-7.87,0,*53
1509203159.94,12844,9.38,72492.8,-7.31,-7.99,-7.99,0,*5E
1509203161.16,12845,9.38,72482.5,-7.29,-7.95,-7.87,0,*55
1509203162.4,12846,9.38,72486.5,-7.29,-7.95,-7.99,0,*59
1509203163.64,12847,9.38,72492.3,-7.29,-7.95,-7.95,0,*54
1509203164.91,12848,9.38,72496.5,-7.31,-7.99,-7.91,0,*5A
1509203166.13,12849,9.38,72490.5,-7.29,-7.95,-7.87,0,*59
1509203167.35,12850,9.38,72496.5,-7.29,-7.99,-7.83,0,*59
1509203168.59,12851,9.38,72496.3,-7.29,-7.95,-7.95,0,*53
1509203169.78,12852,9.38,72496.3,-7.29,-7.87,-7.83,0,*54
1509203171.0,12853,9.38,72496.0,-7.29,-7.99,-7.87,0,*5E
1509203172.21,12854,9.38,72512.5,-7.29,-7.87,-7.95,0,*55
1509203173.43,12855,9.38,72512.0,-7.29,-7.95,-7.87,0,*54
1509203174.67,12856,9.38,72514.8,-7.29,-7.95,-7.95,0,*54
1509203175.89,12857,9.38,72508.0,-7.29,-7.95,-7.87,0,*56
1509203177.13,12858,9.38,72506.8,-7.29,-7.95,-7.95,0,*5A
1509203178.37,12859,9.38,72512.3,-7.29,-7.99,-7.95,0,*57
1509203179.6,12860,9.38,72498.0,-7.29,-7.99,-7.95,0,*5D
1509203180.84,12861,9.38,72496.8,-7.29,-7.99,-7.95,0,*5C
1509203182.11,12862,9.44,72494.0,-7.31,-7.99,-7.99,0,*5A
1509203183.35,12863,9.38,72488.5,-7.29,-7.95,-7.95,0,*52
1509203184.61,12864,9.38,72486.0,-7.31,-8.03,-8.03,0,*5C
1509203185.86,12865,9.38,72482.8,-7.29,-7.99,-7.99,0,*54
1509203187.09,12866,9.38,72474.3,-7.29,-7.99,-7.95,0,*5B
1509203188.33,12867,9.38,72476.5,-7.29,-7.99,-7.99,0,*56
1509203189.57,12868,9.38,72494.0,-7.29,-7.99,-7.99,0,*59
1509203190.81,12869,9.38,72490.8,-7.29,-7.95,-7.99,0,*54
1509203192.06,12870,9.38,72492.3,-7.29,-7.99,-7.99,0,*50
1509203193.3,12871,9.38,72474.8,-7.29,-7.95,-7.99,0,*5D
1509203194.54,12872,9.38,72478.0,-7.29,-7.99,-7.99,0,*52
1509203195.78,12873,9.38,72490.3,-7.29,-8.07,-7.99,0,*5B
1509203197.02,12874,9.38,72482.0,-7.29,-7.95,-7.99,0,*58
1509203198.29,12875,9.38,72482.3,-7.31,-8.03,-8.03,0,*5C
1509203199.52,12876,9.38,72480.8,-7.29,-7.99,-7.95,0,*5A
1509203200.76,12877,9.38,72480.3,-7.29,-7.95,-7.95,0,*57
1509203202.0,12878,9.38,72502.5,-7.29,-8.03,-8.03,0,*58
1509203203.26,12879,9.38,72504.8,-7.31,-8.03,-8.03,0,*50
1509203204.5,12880,9.38,72518.0,-7.29,-7.99,-7.95,0,*53
1509203205.74,12881,9.38,72506.5,-7.29,-7.99,-7.95,0,*52
1509203207.0,12882,9.38,72498.3,-7.31,-8.03,-7.99,0,*58
1509203208.27,12883,9.38,72498.3,-7.31,-7.99,-7.99,0,*55
1509203209.54,12884,9.38,72498.0,-7.31,-7.99,-7.99,0,*52
1509203210.78,12885,9.38,72490.3,-7.29,-7.99,-7.95,0,*56
1509203212.02,12886,9.38,72482.0,-7.29,-7.95,-7.95,0,*59
1509203213.26,12887,9.38,72490.0,-7.29,-7.99,-7.95,0,*54
1509203214.52,12888,9.38,72482.5,-7.31,-8.03,-8.03,0,*5E
1509203215.79,12889,9.38,72484.5,-7.31,-7.99,-7.99,0,*5F
1509203217.06,12890,9.38,72492.5,-7.31,-7.99,-8.03,0,*5B
1509203218.33,12891,9.38,72488.0,-7.31,-8.03,-7.99,0,*5A
1509203219.59,12892,9.38,72490.0,-7.31,-7.99,-8.03,0,*59
1509203220.81,12893,9.38,72490.5,-7.29,-7.95,-7.87,0,*5E
1509203222.08,12894,9.38,72492.0,-7.31,-7.99,-7.99,0,*53
1509203223.32,12895,9.38,72502.5,-7.29,-7.95,-7.99,0,*57
1509203224.59,12896,9.38,72496.5,-7.31,-8.03,-7.99,0,*5D
1509203225.86,12897,9.38,72498.8,-7.31,-7.99,-7.99,0,*50
1509203227.13,12898,9.38,72498.5,-7.31,-8.03,-7.99,0,*53
1509203228.36,12899,9.38,72496.3,-7.29,-7.95,-7.95,0,*57
1509203229.6,12900,9.38,72506.8,-7.29,-7.95,-7.95,0,*56
1509203230.87,12901,9.38,72508.3,-7.31,-7.99,-7.99,0,*5E
1509203232.09,12902,9.44,72516.3,-7.29,-7.87,-7.95,0,*57
1509203233.36,12903,9.38,72512.5,-7.31,-7.99,-7.91,0,*54
1509203234.55,12904,9.38,72524.3,-7.29,-7.87,-7.87,0,*52
1509203235.77,12905,9.38,72514.5,-7.29,-7.99,-7.87,0,*5C
1509203237.04,12906,9.38,72512.5,-7.31,-7.99,-7.99,0,*59
1509203238.28,12907,9.38,72508.0,-7.29,-7.99,-7.95,0,*5D
1509203239.52,12908,9.38,72508.5,-7.29,-7.95,-7.95,0,*5E
1509203240.74,12909,9.38,72500.3,-7.29,-7.95,-7.87,0,*5C
1509203242.01,12910,9.38,72498.8,-7.31,-7.99,-7.99,0,*5E
1509203243.28,12911,9.38,72490.5,-7.31,-7.99,-7.99,0,*5F
1509203244.52,12912,9.38,72480.5,-7.29,-7.95,-7.99,0,*59
1509203245.76,12913,9.38,72482.3,-7.29,-7.95,-7.95,0,*54
1509203247.02,12914,9.38,72490.3,-7.31,-7.99,-8.03,0,*56
1509203248.29,12915,9.38,72494.8,-7.31,-7.99,-7.99,0,*5B
1509203249.56,12916,9.38,72490.5,-7.31,-7.99,-7.99,0,*58
1509203250.83,12917,9.38,72494.0,-7.31,-8.03,-7.99,0,*55
1509203252.07,12918,9.38,72482.3,-7.29,-7.99,-7.95,0,*53
1509203253.31,12919,9.38,72494.8,-7.29,-7.95,-7.95,0,*5E
1509203254.54,12920,9.38,72498.3,-7.29,-7.99,-7.95,0,*58
1509203255.81,12921,9.38,72490.0,-7.31,-8.03,-7.99,0,*50
1509203257.05,12922,9.38,72494.5,-7.29,-7.99,-7.95,0,*5A
1509203258.29,12923,9.38,72492.5,-7.29,-7.95,-7.95,0,*57
1509203259.53,12924,9.38,72498.0,-7.29,-7.95,-7.99,0,*5C
1509203260.8,12925,9.38,72490.3,-7.31,-7.99,-8.03,0,*54
1509203262.03,12926,9.38,72492.5,-7.29,-7.95,-7.95,0,*52
1509203263.3,12927,9.38,72500.0,-7.31,-7.99,-7.99,0,*5A
1509203264.57,12928,9.38,72498.0,-7.31,-7.91,-7.99,0,*5D
1509203265.84,12929,9.38,72494.8,-7.31,-7.99,-8.03,0,*58
1509203267.11,12930,9.38,72484.3,-7.31,-7.99,-7.99,0,*5C
1509203268.38,12931,9.38,72484.5,-7.31,-7.99,-7.99,0,*5D
1509203269.65,12932,9.38,72482.5,-7.31,-8.03,-7.99,0,*52
1509203270.92,12933,9.38,72480.3,-7.31,-7.99,-7.99,0,*5F
1509203272.19,12934,9.38,72488.5,-7.31,-7.99,-7.99,0,*58
1509203273.46,12935,9.38,72498.3,-7.31,-7.99,-7.99,0,*59
1509203274.7,12936,9.38,72482.5,-7.29,-7.95,-7.95,0,*53
1509203275.93,12937,9.38,72472.3,-7.29,-7.99,-7.95,0,*5E
1509203277.2,12938,9.38,72480.5,-7.31,-8.03,-8.03,0,*54
1509203278.43,12939,9.38,72488.5,-7.29,-7.99,-8.03,0,*50
1509203279.7,12940,9.38,72492.0,-7.31,-7.99,-7.99,0,*5B
1509203280.97,12941,9.38,72492.3,-7.31,-7.99,-7.99,0,*5A
1509203282.24,12942,9.38,72498.3,-7.31,-7.99,-8.03,0,*55
1509203283.51,12943,9.38,72504.3,-7.31,-7.91,-7.91,0,*58
1509203284.78,12944,9.38,72508.5,-7.31,-7.99,-7.91,0,*57
1509203286.05,12945,9.38,72504.8,-7.31,-7.91,-7.91,0,*5E
1509203287.29,12946,9.38,72508.3,-7.31,-8.03,-7.87,0,*5E
1509203288.54,12947,9.38,72506.0,-7.31,-7.99,-7.87,0,*53
1509203289.81,12948,9.38,72502.5,-7.31,-7.91,-7.91,0,*53
1509203291.06,12949,9.38,72506.5,-7.31,-7.91,-7.87,0,*55
1509203292.25,12950,9.38,72506.0,-7.29,-7.83,-7.87,0,*57
1509203293.5,12951,9.38,72508.5,-7.31,-7.91,-7.87,0,*5C
1509203294.7,12952,9.38,72520.8,-7.29,-7.87,-7.87,0,*51
1509203295.96,12953,9.38,72526.8,-7.31,-7.91,-7.91,0,*59
1509203297.16,12954,9.38,72522.8,-7.29,-7.87,-7.87,0,*57
1509203298.43,12955,9.38,72492.8,-7.31,-7.91,-7.91,0,*5F
1509203299.65,12956,9.38,72482.3,-7.29,-7.95,-7.87,0,*56
1509203300.84,12957,9.38,72488.3,-7.29,-7.87,-7.87,0,*54
1509203302.04,12958,9.38,72496.0,-7.29,-7.87,-7.87,0,*5B
1509203303.25,12959,9.38,72500.3,-7.29,-7.87,-7.95,0,*59
1509203304.46,12960,9.38,72486.5,-7.29,-7.87,-7.95,0,*53
1509203305.74,12961,9.38,72490.0,-7.31,-7.99,-7.91,0,*50
1509203307.01,12962,9.38,72486.8,-7.31,-7.99,-7.91,0,*53
1509203308.22,12963,9.38,72488.0,-7.29,-7.95,-7.87,0,*50
1509203309.5,12964,9.38,72488.5,-7.31,-7.99,-7.99,0,*5D
1509203310.77,12965,9.38,72490.0,-7.31,-7.99,-7.99,0,*5C
1509203312.04,12966,9.38,72494.0,-7.31,-7.99,-7.99,0,*5F
1509203313.27,12967,9.38,72496.8,-7.29,-7.99,-7.95,0,*5B
1509203314.51,12968,9.38,72502.0,-7.29,-7.95,-7.95,0,*58
1509203315.78,12969,9.38,72492.5,-7.31,-7.91,-7.91,0,*50
1509203316.98,12970,9.38,72502.3,-7.29,-7.87,-7.87,0,*51
1509203318.17,12971,9.38,72506.5,-7.29,-7.87,-7.87,0,*50
1509203319.37,12972,9.38,72500.3,-7.29,-7.83,-7.83,0,*53
1509203320.64,12973,9.38,72514.3,-7.31,-7.99,-7.91,0,*53
1509203321.88,12974,9.38,72490.5,-7.31,-7.87,-7.91,0,*5B
1509203323.08,12975,9.38,72486.3,-7.29,-7.83,-7.87,0,*50